| time (UTC) | temp F | wind direction | speed knots | gust knots | rain 1hr in | rain 24hr in | rain mn in | humidity % | barometer mb |
| 20260506044825 | 49 | 207 | 1.7 | 4.3 | 0.00 | 0.00 | 0.00 | 79 | 1008.8 |
| 20260506044151 | 49 | 199 | 0.9 | 8.7 | 0.00 | 0.00 | 0.00 | 80 | 1008.2 |
| 20260506043324 | 49 | 251 | 1.7 | 5.2 | 0.00 | 0.00 | 0.00 | 80 | 1008.9 |
| 20260506042650 | 49 | 201 | 2.6 | 8.7 | 0.00 | 0.00 | 0.00 | 80 | 1007.9 |
| 20260506041839 | 49 | 219 | 1.7 | 5.2 | 0.00 | 0.00 | 0.00 | 81 | 1008.8 |
| 20260506041151 | 49 | 199 | 1.7 | 8.7 | 0.00 | 0.00 | 0.00 | 82 | 1007.9 |
| 20260506040314 | 49 | 202 | 0.9 | 7.8 | 0.00 | 0.00 | 0.00 | 82 | 1009.0 |
| 20260506035651 | 49 | 108 | 1.7 | 8.7 | 0.00 | 0.00 | 0.00 | 82 | 1008.0 |
| 20260506034840 | 49 | 194 | 0.9 | 8.7 | 0.00 | 0.00 | 0.00 | 83 | 1008.8 |
| 20260506034150 | 49 | 239 | 0.9 | 8.7 | 0.00 | 0.00 | 0.00 | 83 | 1007.9 |
| 20260506033336 | 49 | 197 | 0.9 | 7.0 | 0.00 | 0.00 | 0.00 | 83 | 1008.6 |
| 20260506032651 | 49 | 229 | 1.7 | 8.7 | 0.00 | 0.00 | 0.00 | 83 | 1007.5 |
| 20260506031814 | 49 | 233 | 0.0 | 5.2 | 0.00 | 0.00 | 0.00 | 84 | 1008.2 |
| 20260506031150 | 49 | 191 | 0.0 | 8.7 | 0.00 | 0.00 | 0.00 | 84 | 1006.9 |
| 20260506030331 | 49 | 202 | 0.9 | 6.1 | 0.00 | 0.00 | 0.00 | 84 | 1007.5 |
| 20260506025650 | 49 | 178 | 0.0 | 8.7 | 0.00 | 0.00 | 0.00 | 84 | 1006.6 |
| 20260506024814 | 49 | 108 | 0.9 | 9.6 | 0.00 | 0.00 | 0.00 | 84 | 1007.7 |
| 20260506024151 | 49 | 205 | 0.9 | 8.7 | 0.00 | 0.00 | 0.00 | 83 | 1006.8 |
| 20260506023327 | 49 | 307 | 0.9 | 11.3 | 0.00 | 0.00 | 0.00 | 83 | 1007.6 |
| 20260506022650 | 49 | 40 | 1.7 | 8.7 | 0.00 | 0.00 | 0.00 | 82 | 1006.7 |
| 20260506021825 | 49 | 234 | 3.5 | 9.6 | 0.00 | 0.00 | 0.00 | 82 | 1007.6 |
| 20260506021151 | 49 | 122 | 2.6 | 8.7 | 0.00 | 0.00 | 0.00 | 82 | 1006.5 |
| 20260506020323 | 49 | 135 | 1.7 | 9.6 | 0.00 | 0.00 | 0.00 | 82 | 1007.5 |
| 20260506015651 | 49 | 192 | 1.7 | 8.7 | 0.00 | 0.00 | 0.00 | 82 | 1006.4 |
| 20260506014841 | 49 | 210 | 0.9 | 8.7 | 0.00 | 0.00 | 0.00 | 82 | 1007.3 |
| 20260506014150 | 49 | 208 | 1.7 | 8.7 | 0.00 | 0.00 | 0.00 | 82 | 1006.1 |
| 20260506013320 | 49 | 199 | 1.7 | 8.7 | 0.00 | 0.00 | 0.00 | 82 | 1007.1 |
| 20260506012651 | 50 | 227 | 0.0 | 8.7 | 0.00 | 0.00 | 0.00 | 82 | 1006.0 |
| 20260506011818 | 50 | 180 | 0.0 | 3.5 | 0.00 | 0.00 | 0.00 | 82 | 1007.0 |
| 20260506011151 | 50 | 163 | 0.0 | 8.7 | 0.00 | 0.00 | 0.00 | 81 | 1005.8 |
| 20260506010319 | 50 | 206 | 1.7 | 7.0 | 0.00 | 0.00 | 0.00 | 81 | 1006.6 |
| 20260506005651 | 50 | 208 | 0.0 | 8.7 | 0.00 | 0.00 | 0.00 | 80 | 1005.2 |
| 20260506004828 | 50 | 163 | 2.6 | 6.1 | 0.00 | 0.00 | 0.00 | 80 | 1006.2 |
| 20260506004150 | 51 | 181 | 0.9 | 8.7 | 0.00 | 0.00 | 0.00 | 79 | 1004.8 |
| 20260506003326 | 51 | 222 | 1.7 | 11.3 | 0.00 | 0.00 | 0.00 | 77 | 1005.9 |
| 20260506002652 | 51 | 116 | 0.0 | 8.7 | 0.00 | 0.00 | 0.00 | 76 | 1004.7 |
| 20260506001823 | 52 | 192 | 0.0 | 4.3 | 0.00 | 0.00 | 0.00 | 76 | 1005.8 |
| 20260506001150 | 52 | 196 | 0.0 | 8.7 | 0.00 | 0.00 | 0.00 | 76 | 1004.6 |
| 20260506000323 | 52 | 195 | 1.7 | 7.0 | 0.00 | 0.00 | 0.00 | 75 | 1005.9 |
| 20260505235650 | 52 | 170 | 0.0 | 8.7 | 0.00 | 0.00 | 0.00 | 75 | 1004.4 |
| 20260505234821 | 52 | 217 | 1.7 | 7.8 | 0.00 | 0.00 | 0.00 | 75 | 1005.3 |
| 20260505234151 | 52 | 152 | 0.0 | 8.7 | 0.00 | 0.00 | 0.00 | 75 | 1004.5 |
| 20260505233322 | 53 | 102 | 2.6 | 9.6 | 0.00 | 0.00 | 0.00 | 75 | 1005.6 |
| 20260505232650 | 53 | 121 | 3.5 | 8.7 | 0.00 | 0.00 | 0.00 | 76 | 1004.5 |
| 20260505231821 | 53 | 196 | 0.9 | 8.7 | 0.00 | 0.00 | 0.00 | 76 | 1006.0 |
| 20260505231151 | 53 | 208 | 0.9 | 8.7 | 0.00 | 0.00 | 0.00 | 76 | 1004.3 |
| 20260505230340 | 53 | 201 | 0.9 | 8.7 | 0.00 | 0.00 | 0.00 | 76 | 1005.4 |
| 20260505225650 | 53 | 170 | 0.0 | 8.7 | 0.00 | 0.00 | 0.00 | 76 | 1004.0 |
| 20260505224820 | 53 | 123 | 0.9 | 7.0 | 0.00 | 0.00 | 0.00 | 76 | 1005.4 |
| 20260505224151 | 53 | 199 | 0.0 | 8.7 | 0.00 | 0.00 | 0.00 | 76 | 1004.4 |
| 20260505223322 | 53 | 185 | 0.9 | 5.2 | 0.00 | 0.00 | 0.00 | 76 | 1005.1 |
| 20260505222651 | 53 | 194 | 4.3 | 8.7 | 0.00 | 0.00 | 0.00 | 76 | 1003.8 |
| 20260505221821 | 54 | 209 | 3.5 | 11.3 | 0.00 | 0.00 | 0.00 | 76 | 1005.0 |
| 20260505221150 | 54 | 141 | 0.9 | 8.7 | 0.00 | 0.00 | 0.00 | 76 | 1003.7 |
| 20260505220341 | 53 | 28 | 2.6 | 10.4 | 0.00 | 0.00 | 0.00 | 76 | 1004.5 |
| 20260505215651 | 54 | 193 | 1.7 | 8.7 | 0.00 | 0.00 | 0.00 | 76 | 1003.2 |
| 20260505214823 | 54 | 213 | 2.6 | 9.6 | 0.00 | 0.00 | 0.00 | 76 | 1004.5 |
| 20260505214150 | 54 | 185 | 4.3 | 8.7 | 0.00 | 0.00 | 0.00 | 76 | 1003.3 |
| 20260505213322 | 54 | 203 | 1.7 | 10.4 | 0.00 | 0.00 | 0.00 | 75 | 1004.6 |
| 20260505212650 | 55 | 177 | 4.3 | 8.7 | 0.00 | 0.00 | 0.00 | 75 | 1003.4 |
| 20260505211821 | 55 | 144 | 3.5 | 9.6 | 0.00 | 0.00 | 0.00 | 75 | 1003.7 |
| 20260505211151 | 55 | 222 | 6.1 | 8.7 | 0.00 | 0.00 | 0.00 | 75 | 1002.3 |
| 20260505210321 | 55 | 203 | 1.7 | 9.6 | 0.00 | 0.00 | 0.00 | 76 | 1003.8 |
| 20260505205650 | 55 | 136 | 0.0 | 8.7 | 0.00 | 0.00 | 0.00 | 77 | 1002.5 |
| 20260505204824 | 55 | 167 | 1.7 | 10.4 | 0.00 | 0.00 | 0.00 | 78 | 1004.1 |
| 20260505204151 | 55 | 134 | 1.7 | 8.7 | 0.00 | 0.00 | 0.00 | 78 | 1002.7 |
| 20260505203343 | 54 | 188 | 1.7 | 9.6 | 0.00 | 0.00 | 0.00 | 79 | 1004.2 |
| 20260505202651 | 54 | 115 | 1.7 | 8.7 | 0.00 | 0.00 | 0.00 | 80 | 1002.9 |
| 20260505201822 | 54 | 147 | 0.0 | 7.8 | 0.00 | 0.00 | 0.00 | 81 | 1004.4 |
| 20260505201150 | 54 | 207 | 3.5 | 8.7 | 0.00 | 0.00 | 0.00 | 81 | 1002.7 |
| 20260505200343 | 55 | 196 | 1.7 | 14.8 | 0.00 | 0.00 | 0.00 | 82 | 1003.7 |
| 20260505195651 | 55 | 210 | 2.6 | 8.7 | 0.00 | 0.00 | 0.00 | 81 | 1002.3 |
| 20260505194821 | 56 | 205 | 0.9 | 7.8 | 0.00 | 0.00 | 0.00 | 81 | 1003.2 |
| 20260505194150 | 56 | 188 | 0.9 | 8.7 | 0.00 | 0.00 | 0.00 | 80 | 1002.1 |
| 20260505193319 | 56 | 239 | 2.6 | 8.7 | 0.00 | 0.00 | 0.00 | 80 | 1003.8 |
| 20260505192652 | 56 | 198 | 0.9 | 8.7 | 0.00 | 0.00 | 0.00 | 80 | 1002.3 |
| 20260505191818 | 56 | 209 | 1.7 | 10.4 | 0.00 | 0.00 | 0.00 | 81 | 1003.7 |
| 20260505191151 | 57 | 109 | 1.7 | 8.7 | 0.00 | 0.00 | 0.00 | 80 | 1001.7 |
| 20260505190321 | 56 | 184 | 0.9 | 9.6 | 0.00 | 0.00 | 0.00 | 81 | 1003.2 |
| 20260505185650 | 57 | 154 | 0.9 | 8.7 | 0.00 | 0.00 | 0.00 | 80 | 1001.7 |
| 20260505184820 | 57 | 206 | 2.6 | 10.4 | 0.00 | 0.00 | 0.00 | 81 | 1003.2 |
| 20260505184151 | 57 | 241 | 2.6 | 8.7 | 0.00 | 0.00 | 0.00 | 82 | 1001.7 |
| 20260505183320 | 57 | 246 | 2.6 | 8.7 | 0.00 | 0.00 | 0.00 | 82 | 1003.3 |
| 20260505182651 | 57 | 146 | 2.6 | 8.7 | 0.00 | 0.00 | 0.00 | 82 | 1001.5 |
| 20260505181823 | 57 | 197 | 1.7 | 10.4 | 0.00 | 0.00 | 0.00 | 82 | 1003.0 |
| 20260505181150 | 57 | 169 | 1.7 | 8.7 | 0.00 | 0.00 | 0.00 | 81 | 1001.1 |
| 20260505180323 | 57 | 201 | 0.9 | 8.7 | 0.00 | 0.00 | 0.00 | 82 | 1002.6 |
| 20260505175651 | 58 | 156 | 7.0 | 8.7 | 0.00 | 0.00 | 0.00 | 82 | 1000.9 |
| 20260505174822 | 58 | 125 | 1.7 | 8.7 | 0.00 | 0.00 | 0.00 | 82 | 1002.5 |
| 20260505174150 | 58 | 92 | 0.9 | 8.7 | 0.00 | 0.00 | 0.00 | 82 | 1000.7 |
| 20260505173325 | 58 | 59 | 2.6 | 11.3 | 0.00 | 0.00 | 0.00 | 83 | 1002.4 |
| 20260505172650 | 58 | 144 | 3.5 | 8.7 | 0.00 | 0.00 | 0.00 | 83 | 1000.5 |
| 20260505171823 | 58 | 117 | 0.9 | 11.3 | 0.00 | 0.00 | 0.00 | 83 | 1002.3 |
| 20260505171151 | 58 | 89 | 0.0 | 8.7 | 0.00 | 0.00 | 0.00 | 83 | 1000.3 |
| 20260505170320 | 59 | 159 | 5.2 | 16.5 | 0.00 | 0.00 | 0.00 | 82 | 1001.7 |
| 20260505165651 | 60 | 183 | 3.5 | 8.7 | 0.00 | 0.00 | 0.00 | 82 | 999.6 |
| 20260505164823 | 60 | 215 | 3.5 | 11.3 | 0.00 | 0.00 | 0.00 | 81 | 1001.5 |
| 20260505164150 | 62 | 194 | 2.6 | 8.7 | 0.00 | 0.00 | 0.00 | 80 | 999.3 |
| 20260505163323 | 63 | 129 | 5.2 | 13.9 | 0.00 | 0.00 | 0.00 | 80 | 1001.0 |
| 20260505162650 | 64 | 196 | 3.5 | 8.7 | 0.00 | 0.00 | 0.00 | 80 | 998.8 |
| 20260505161815 | 65 | 150 | 3.5 | 12.2 | 0.00 | 0.00 | 0.00 | 79 | 1000.3 |
| 20260505161150 | 67 | 142 | 0.0 | 8.7 | 0.00 | 0.00 | 0.00 | 80 | 997.9 |
| 20260505160333 | 69 | 141 | 3.5 | 11.3 | 0.00 | 0.00 | 0.00 | 76 | 999.4 |
| 20260505153328 | 73 | 188 | 0.0 | 2.6 | 0.00 | 0.00 | 0.00 | 79 | 998.9 |
| 20260505152652 | 73 | 210 | 0.0 | 8.7 | 0.00 | 0.00 | 0.00 | 78 | 997.1 |
| 20260505151825 | 73 | 210 | 0.0 | 0.9 | 0.00 | 0.00 | 0.00 | 77 | 998.6 |
| 20260505151151 | 73 | 214 | 0.0 | 8.7 | 0.00 | 0.00 | 0.00 | 78 | 996.5 |
| 20260505150326 | 73 | 258 | 0.0 | 2.6 | 0.00 | 0.00 | 0.00 | 78 | 998.3 |
| 20260505140324 | 72 | 314 | 0.0 | 1.7 | 0.00 | 0.00 | 0.00 | 78 | 997.9 |
| 20260505124906 | 68 | 196 | 0.0 | 8.7 | 0.00 | 0.00 | 0.00 | 85 | 995.8 |
| 20260505124849 | 68 | 196 | 0.0 | 0.0 | 0.00 | 0.00 | 0.00 | 85 | 997.6 |
| 20260505123407 | 68 | 196 | 0.0 | 8.7 | 0.00 | 0.00 | 0.00 | 84 | 995.7 |
| 20260505123345 | 68 | 196 | 0.0 | 0.9 | 0.00 | 0.00 | 0.00 | 84 | 997.5 |
| 20260505121906 | 68 | 348 | 0.0 | 8.7 | 0.00 | 0.00 | 0.00 | 84 | 995.4 |
| 20260505121822 | 68 | 353 | 0.0 | 0.9 | 0.00 | 0.00 | 0.00 | 84 | 997.2 |
| 20260505120408 | 68 | 270 | 0.0 | 8.7 | 0.00 | 0.00 | 0.00 | 84 | 994.9 |
| 20260505120321 | 68 | 308 | 0.0 | 0.9 | 0.00 | 0.00 | 0.00 | 84 | 996.8 |
| 20260505114907 | 68 | 324 | 0.0 | 8.7 | 0.00 | 0.00 | 0.00 | 83 | 994.5 |
| 20260505114832 | 68 | 324 | 0.0 | 3.5 | 0.00 | 0.00 | 0.00 | 83 | 996.3 |
| 20260505113406 | 68 | 315 | 0.0 | 8.7 | 0.00 | 0.00 | 0.00 | 83 | 994.1 |
| 20260505113313 | 68 | 315 | 0.0 | 0.9 | 0.00 | 0.00 | 0.00 | 83 | 995.9 |
| 20260505111907 | 69 | 318 | 0.0 | 8.7 | 0.00 | 0.00 | 0.00 | 82 | 993.9 |
| 20260505111826 | 69 | 317 | 0.0 | 2.6 | 0.00 | 0.00 | 0.00 | 82 | 995.7 |
| 20260505110407 | 69 | 47 | 0.0 | 8.7 | 0.00 | 0.00 | 0.00 | 81 | 993.8 |
| 20260505110345 | 69 | 47 | 0.0 | 2.6 | 0.00 | 0.00 | 0.00 | 81 | 995.5 |
| 20260505101907 | 70 | 33 | 0.9 | 8.7 | 0.00 | 0.00 | 0.00 | 80 | 993.6 |
| 20260505101840 | 70 | 19 | 0.0 | 3.5 | 0.00 | 0.00 | 0.00 | 80 | 995.3 |
| 20260505100407 | 70 | 286 | 0.0 | 8.7 | 0.00 | 0.00 | 0.00 | 79 | 993.7 |
| 20260505100311 | 70 | 221 | 0.9 | 6.1 | 0.00 | 0.00 | 0.00 | 79 | 995.4 |
| 20260505094906 | 70 | 40 | 0.9 | 8.7 | 0.00 | 0.00 | 0.00 | 79 | 993.5 |
| 20260505094813 | 70 | 42 | 1.7 | 6.1 | 0.00 | 0.00 | 0.00 | 79 | 995.2 |
| 20260505093407 | 70 | 68 | 0.0 | 8.7 | 0.00 | 0.00 | 0.00 | 80 | 993.6 |
| 20260505093351 | 70 | 52 | 0.0 | 5.2 | 0.00 | 0.00 | 0.00 | 79 | 995.3 |
| 20260505091906 | 70 | 338 | 0.0 | 8.7 | 0.00 | 0.00 | 0.00 | 79 | 993.8 |
| 20260505091829 | 70 | 57 | 0.0 | 4.3 | 0.00 | 0.00 | 0.00 | 79 | 995.5 |
| 20260505090408 | 70 | 336 | 0.9 | 8.7 | 0.00 | 0.00 | 0.00 | 80 | 993.9 |
| 20260505090322 | 70 | 31 | 0.9 | 4.3 | 0.00 | 0.00 | 0.00 | 80 | 995.6 |
| 20260505084907 | 70 | 50 | 0.9 | 8.7 | 0.00 | 0.00 | 0.00 | 79 | 993.9 |
| 20260505084822 | 70 | 319 | 0.0 | 4.3 | 0.00 | 0.00 | 0.00 | 79 | 995.6 |
| 20260505083406 | 70 | 341 | 0.0 | 8.7 | 0.00 | 0.00 | 0.00 | 79 | 993.9 |
| 20260505083338 | 70 | 331 | 0.0 | 3.5 | 0.00 | 0.00 | 0.00 | 79 | 995.8 |
| 20260505081907 | 70 | 338 | 0.0 | 8.7 | 0.00 | 0.00 | 0.00 | 79 | 994.1 |
| 20260505081812 | 70 | 316 | 0.0 | 5.2 | 0.00 | 0.00 | 0.00 | 79 | 995.9 |
| 20260505080407 | 71 | 38 | 0.9 | 8.7 | 0.00 | 0.00 | 0.00 | 79 | 994.2 |
| 20260505080311 | 71 | 334 | 0.9 | 5.2 | 0.00 | 0.00 | 0.00 | 79 | 996.0 |
| 20260505074906 | 70 | 48 | 1.7 | 8.7 | 0.00 | 0.00 | 0.00 | 79 | 994.3 |
| 20260505074828 | 70 | 292 | 1.7 | 5.2 | 0.00 | 0.00 | 0.00 | 79 | 996.0 |
| 20260505073408 | 70 | 353 | 0.9 | 8.7 | 0.00 | 0.00 | 0.00 | 79 | 994.4 |
| 20260505073324 | 70 | 30 | 0.9 | 6.1 | 0.00 | 0.00 | 0.00 | 79 | 996.1 |
| 20260505071907 | 70 | 341 | 0.9 | 8.7 | 0.00 | 0.00 | 0.00 | 79 | 994.8 |
| 20260505071831 | 70 | 52 | 1.7 | 12.2 | 0.00 | 0.00 | 0.00 | 79 | 996.5 |
| 20260505070406 | 71 | 317 | 0.0 | 8.7 | 0.00 | 0.00 | 0.00 | 78 | 994.9 |
| 20260505070321 | 71 | 339 | 1.7 | 6.1 | 0.00 | 0.00 | 0.00 | 78 | 996.6 |
| 20260505064906 | 71 | 284 | 1.7 | 8.7 | 0.00 | 0.00 | 0.00 | 78 | 995.1 |
| 20260505064819 | 71 | 337 | 1.7 | 9.6 | 0.00 | 0.00 | 0.00 | 78 | 996.8 |
| 20260505063406 | 71 | 305 | 1.7 | 8.7 | 0.00 | 0.00 | 0.00 | 78 | 995.2 |
| 20260505063313 | 71 | 4 | 0.9 | 6.1 | 0.00 | 0.00 | 0.00 | 78 | 996.9 |
| 20260505061906 | 71 | 38 | 1.7 | 8.7 | 0.00 | 0.00 | 0.00 | 78 | 995.3 |
| 20260505061817 | 71 | 350 | 1.7 | 7.0 | 0.00 | 0.00 | 0.00 | 78 | 997.0 |
| 20260505060407 | 71 | 337 | 1.7 | 8.7 | 0.00 | 0.00 | 0.00 | 78 | 995.6 |
| 20260505060328 | 71 | 319 | 0.9 | 7.0 | 0.00 | 0.00 | 0.00 | 78 | 997.3 |
| 20260505054907 | 71 | 347 | 0.0 | 8.7 | 0.00 | 0.00 | 0.00 | 78 | 995.8 |
| 20260505054828 | 71 | 9 | 1.7 | 7.8 | 0.00 | 0.00 | 0.00 | 78 | 997.5 |
| 20260505053407 | 70 | 308 | 3.5 | 8.7 | 0.00 | 0.00 | 0.00 | 78 | 995.7 |
| 20260505053326 | 70 | 312 | 0.9 | 4.3 | 0.00 | 0.00 | 0.00 | 78 | 997.5 |
| 20260505051907 | 71 | 324 | 1.7 | 8.7 | 0.00 | 0.00 | 0.00 | 77 | 995.8 |
| 20260505051826 | 71 | 42 | 0.9 | 7.0 | 0.00 | 0.00 | 0.00 | 77 | 997.5 |
| 20260505050406 | 71 | 104 | 0.0 | 8.7 | 0.00 | 0.00 | 0.00 | 77 | 995.9 |
| 20260505050329 | 71 | 341 | 2.6 | 6.1 | 0.00 | 0.00 | 0.00 | 77 | 997.7 |